This is the latest recevied weather packets stored in our database for station/object MB7UUE. If no packets are shown the sender has not sent any weather packets the latest 10 day(s).
| Time | Temp. | Humidity | Pressure | Rain* | Wind** | Luminosity | Snow |
|---|---|---|---|---|---|---|---|
| 1788111986 | 21.11° C | 59% | 1006.9 hPa | 0 mm | - | - | - |
| 1788110847 | 21.67° C | 56% | 1006.9 hPa | 0 mm | - | - | - |
| 1788109706 | 22.22° C | 53% | 1007 hPa | 0 mm | - | - | - |
| 1788108567 | 22.22° C | 55% | 1007.1 hPa | 0 mm | - | - | - |
| 1788107426 | 22.78° C | 53% | 1007.2 hPa | 0 mm | - | - | - |
| 1788106286 | 22.78° C | 53% | 1007.3 hPa | 0 mm | - | - | - |
| 1788105146 | 22.78° C | 54% | 1007.5 hPa | 0 mm | - | - | - |
| 1788104006 | 22.78° C | 55% | 1007.6 hPa | 0 mm | - | - | - |
| 1788102866 | 22.78° C | 58% | 1007.6 hPa | 0 mm | - | - | - |
| 1788101726 | 22.78° C | 57% | 1007.6 hPa | 0 mm | - | - | - |
| 1788100586 | 22.78° C | 56% | 1007.8 hPa | 0 mm | - | - | - |
| 1788099446 | 22.78° C | 58% | 1008 hPa | 0 mm | - | - | - |
| 1788098306 | 21.67° C | 62% | 1008.2 hPa | 0 mm | - | - | - |
| 1788097167 | 21.67° C | 63% | 1008.6 hPa | 0 mm | - | - | - |
| 1788096026 | 23.33° C | 52% | 1008.6 hPa | 0 mm | - | - | - |
| 1788094887 | 23.33° C | 50% | 1008.6 hPa | 0 mm | - | - | - |
| 1788093746 | 23.33° C | 52% | 1008.6 hPa | 0 mm | - | - | - |
| 1788092607 | 23.33° C | 52% | 1008.7 hPa | 0 mm | - | - | - |
| 1788091466 | 23.33° C | 53% | 1008.7 hPa | 0 mm | - | - | - |
| 1788090326 | 22.78° C | 54% | 1008.9 hPa | 0 mm | - | - | - |
| 1788089187 | 22.78° C | 55% | 1009.1 hPa | 0 mm | - | - | - |
| 1788088046 | 22.22° C | 56% | 1009.3 hPa | 0 mm | - | - | - |
| 1788083487 | 21.11° C | 64% | 1009.7 hPa | 0 mm | - | - | - |
| 1788082346 | 20° C | 67% | 1009.7 hPa | 0 mm | - | - | - |
| 1788081207 | 19.44° C | 70% | 1009.7 hPa | 0 mm | - | - | - |
* Rain latest hour (hover to see other rain measurements)
** Current wind speed in m/s (hover to see current wind gust speed)